Weather Roundup
Issued by NWS Chicago, IL

Home | Current Version | Previous Version | Text Only | Print | Product List | Glossary On
Versions: 1 2 3 4 5 6 7 8 9 10 11 12 13 14 15 16 17 18 19 20 21 22 23 24 25 26 27 28 29 30 31 32 33 34 35 36 37 38 39 40 41 42 43 44 45 46 47 48 49 50
675
NZUS59 KLOT 290908
HRRLOT

CHICAGO AREA WEATHER ROUNDUP
NATIONAL WEATHER SERVICE CHICAGO/ROMEOVILLE IL
400 AM CDT WED MAR 29 2017

NOTE: "FAIR" INDICATES FEW OR NO CLOUDS BELOW 12,000 FEET WITH NO
SIGNIFICANT WEATHER AND/OR OBSTRUCTIONS TO VISIBILITY.

* THESE STATIONS ARE NOT UNDER NWS QUALITY CONTROL. THEY ALSO MAY NOT
  REPORT WEATHER SUCH AS PRECIPITATION OR FOG.

ILZ005-006-012>014-019>023-291000-
NORTHEAST ILLINOIS

CITY           SKY/WX    TMP DP  RH WIND       PRES   REMARKS
OHARE          FOG       35  34  96 NE9       30.22R VSB 3/4 WCI  28
MIDWAY         CLOUDY    36  35  96 NE8       30.23R FOG
AURORA         CLOUDY    38  36  92 E9        30.21S FOG
LANSING*       FOG       35  35 100 NE6       30.22R VSB 3/4 WCI  30
JOLIET*        CLOUDY    39  38  96 NE8       30.21F
WAUKEGAN       FOG       33  33 100 NE3       30.23S VSB 1/4
DUPAGE AIRPORT CLOUDY    36  36 100 NE8       30.21S FOG
WHEELING       FOG       33  33 100 NE7       30.24S VSB 1   WCI  27
KANKAKEE*      CLOUDY    41  39  93 NE8       30.19S
MORRIS*        CLOUDY    38  37  93 E8        30.19F
LEWIS AIRPORT* CLOUDY    37  37 100 E12       30.21F
NORTHERLY ISL    N/A     34  33  96 N12         N/A  WCI  25
$$

WIZ051-052-058>065-066-070>072-291000-
SOUTHEAST WISCONSIN

CITY           SKY/WX    TMP DP  RH WIND       PRES   REMARKS
MILWAUKEE      FOG       33  31  92 CALM      30.25R VSB 1/8
KENOSHA*       FOG       31  30  96 E3        30.23S VSB 1/4
RACINE*        FOG       32  29  88 CALM      30.26R VSB 1/4
WAUKESHA       FOG       30  30 100 CALM      30.25R VSB 1/4
WEST BEND      CLEAR     30  30 100 CALM      30.23S FOG
$$

INZ001>003-010>013-019-020-291000-
NORTHWEST INDIANA

CITY           SKY/WX    TMP DP  RH WIND       PRES   REMARKS
GARY*          FOG       37  37 100 NE8       30.23R VSB 1/2
MICHIGAN CITY* NOT AVBL
RENSSELAER*    NOT AVBL
VALPARAISO     CLEAR     37  36  96 NE7       30.21R
$$

LMZ740>746-291000-
SOUTHERN LAKE MICHIGAN

STATION/POSITION TIME  SKY/WX   TEMP WIND        PRES    VSBY
                                AIR  DIR/SP/G
                 (UTC)          (F)  (DEG/KT/KT) (MB)    (MI)
HARRISON CRIB    0840            34   30/  9/ 10   N/A
BURNHAM HARBOR   0900            34   20/ 10/ 11   N/A
CALUMET HARBOR   0848            34   20/  9/ 11 1022.9R
BURNS HARBOR     0840            36   50/  8/ 10 1023.7S
MICHIGAN CITY    0840            36   20/  8/  8   N/A
$$

ABBREVIATIONS USED IN REMARKS
   TC - TEMPERATURE IN CELSIUS
  WCI - WIND CHILL INDEX
   HX - HEAT INDEX
  VSB - VISIBILITY
$$




USA.gov is the U.S. government's official web portal to all federal, state and local government web resources and services.